GW7682 Weather Reports


time (UTC)temp
C
wind
direction
speed
KPH
gust
KPH
rain 1hr
cm
rain 24hr
cm
rain mn
cm
humidity
%
barometer
mb
20260906222424 33 360 4.8 6.4 0.00 0.00 0.00 31 1015.4
20260906221924 33 73 3.2 8.0 0.00 0.00 0.00 30 1015.5
20260906221424 33 146 1.6 4.8 0.00 0.00 0.00 31 1015.6
20260906220924 33 199 3.2 6.4 0.00 0.00 0.00 29 1015.6
20260906220424 33 120 1.6 4.8 0.00 0.00 0.00 30 1015.7
20260906215924 33 130 3.2 6.4 0.00 0.00 0.00 29 1015.7
20260906215424 34 67 4.8 11.3 0.00 0.00 0.00 29 1015.7
20260906214924 34 164 3.2 3.2 0.00 0.00 0.00 30 1015.7
20260906214424 34 69 3.2 4.8 0.00 0.00 0.00 28 1015.8
20260906213925 34 213 4.8 9.7 0.00 0.00 0.00 28 1015.8
20260906213424 34 90 4.8 9.7 0.00 0.00 0.00 28 1016.0
20260906212924 34 45 3.2 6.4 0.00 0.00 0.00 29 1016.1
20260906212424 34 24 3.2 6.4 0.00 0.00 0.00 29 1016.1
20260906211925 35 42 3.2 6.4 0.00 0.00 0.00 28 1016.2
20260906211424 34 41 1.6 3.2 0.00 0.00 0.00 27 1016.2
20260906210924 33 51 4.8 9.7 0.00 0.00 0.00 29 1016.4
20260906210424 33 27 4.8 9.7 0.00 0.00 0.00 29 1016.4
20260906205924 33 337 3.2 6.4 0.00 0.00 0.00 30 1016.5
20260906205424 33 1 3.2 4.8 0.00 0.00 0.00 30 1016.5
20260906204924 33 25 3.2 8.0 0.00 0.00 0.00 31 1016.7
20260906204424 33 23 6.4 8.0 0.00 0.00 0.00 30 1016.8
20260906203924 33 13 4.8 8.0 0.00 0.00 0.00 31 1016.9
20260906203424 32 185 3.2 3.2 0.00 0.00 0.00 30 1016.9
20260906202925 32 183 3.2 6.4 0.00 0.00 0.00 30 1016.9
20260906202424 32 24 4.8 6.4 0.00 0.00 0.00 31 1017.0
20260906201924 32 302 3.2 4.8 0.00 0.00 0.00 30 1017.0
20260906201424 32 93 3.2 8.0 0.00 0.00 0.00 31 1017.0
20260906200925 32 24 3.2 6.4 0.00 0.00 0.00 31 1017.1
20260906200424 32 17 4.8 8.0 0.00 0.00 0.00 31 1017.1
20260906195924 32 38 4.8 9.7 0.00 0.00 0.00 31 1017.3
20260906195424 32 151 3.2 6.4 0.00 0.00 0.00 30 1017.4
20260906194925 32 67 3.2 6.4 0.00 0.00 0.00 29 1017.5
20260906194424 31 24 4.8 8.0 0.00 0.00 0.00 33 1017.5
20260906193924 31 353 3.2 6.4 0.00 0.00 0.00 34 1017.6
20260906193424 31 311 4.8 6.4 0.00 0.00 0.00 32 1017.7
20260906192924 31 16 3.2 6.4 0.00 0.00 0.00 33 1017.7
20260906192424 31 11 4.8 6.4 0.00 0.00 0.00 33 1017.8
20260906191924 31 174 4.8 6.4 0.00 0.00 0.00 32 1017.8
20260906191441 31 74 3.2 6.4 0.00 0.00 0.00 33 1018.0
20260906190924 31 76 3.2 4.8 0.00 0.00 0.00 33 1018.0
20260906190424 30 33 6.4 9.7 0.00 0.00 0.00 35 1018.1
20260906185925 30 66 4.8 6.4 0.00 0.00 0.00 35 1018.2
20260906185424 30 329 4.8 11.3 0.00 0.00 0.00 35 1018.3
20260906184924 30 30 9.7 14.5 0.00 0.00 0.00 35 1018.4
20260906184424 30 20 3.2 6.4 0.00 0.00 0.00 35 1018.5
20260906183924 30 29 3.2 4.8 0.00 0.00 0.00 35 1018.7
20260906183424 30 134 3.2 4.8 0.00 0.00 0.00 35 1018.7
20260906182924 29 21 6.4 8.0 0.00 0.00 0.00 37 1018.8
20260906182424 29 360 6.4 9.7 0.00 0.00 0.00 37 1018.8
20260906181924 29 24 4.8 8.0 0.00 0.00 0.00 37 1019.0
20260906181425 29 47 3.2 6.4 0.00 0.00 0.00 37 1019.1
20260906180924 28 48 3.2 4.8 0.00 0.00 0.00 38 1019.1
20260906180424 28 247 3.2 8.0 0.00 0.00 0.00 39 1019.3
20260906175924 28 16 6.4 9.7 0.00 0.00 0.00 39 1019.4
20260906175424 28 31 1.6 3.2 0.00 0.00 0.00 40 1019.4
20260906174925 28 178 3.2 6.4 0.00 0.00 0.00 40 1019.5
20260906174424 28 59 3.2 4.8 0.00 0.00 0.00 41 1019.6
20260906173924 28 341 3.2 4.8 0.00 0.00 0.00 42 1019.7
20260906173424 28 71 3.2 4.8 0.00 0.00 0.00 41 1019.8
20260906172924 27 327 3.2 4.8 0.00 0.00 0.00 43 1019.8
20260906172424 27 99 4.8 8.0 0.00 0.00 0.00 42 1020.0
20260906171924 27 148 3.2 4.8 0.00 0.00 0.00 44 1020.1
20260906171426 27 134 1.6 3.2 0.00 0.00 0.00 43 1020.2
20260906170924 27 14 6.4 8.0 0.00 0.00 0.00 43 1020.3
20260906170425 26 303 3.2 3.2 0.00 0.00 0.00 42 1020.3
20260906165924 26 146 3.2 6.4 0.00 0.00 0.00 43 1020.3
20260906165425 26 39 1.6 4.8 0.00 0.00 0.00 44 1020.4
20260906164925 26 298 3.2 6.4 0.00 0.00 0.00 44 1020.5
20260906164424 26 43 3.2 6.4 0.00 0.00 0.00 44 1020.5
20260906163924 26 152 1.6 1.6 0.00 0.00 0.00 44 1020.5
20260906163424 26 59 3.2 6.4 0.00 0.00 0.00 44 1020.5
20260906162924 26 311 1.6 3.2 0.00 0.00 0.00 44 1020.5
20260906162424 26 198 1.6 3.2 0.00 0.00 0.00 45 1020.7
20260906161925 25 337 3.2 4.8 0.00 0.00 0.00 46 1020.5
20260906161427 25 176 3.2 4.8 0.00 0.00 0.00 46 1020.5
20260906160926 25 186 3.2 4.8 0.00 0.00 0.00 47 1020.5
20260906160427 25 183 3.2 4.8 0.00 0.00 0.00 46 1020.5
20260906155924 25 64 3.2 4.8 0.00 0.00 0.00 49 1020.5
20260906155424 25 360 3.2 3.2 0.00 0.00 0.00 49 1020.5
20260906154925 25 112 3.2 6.4 0.00 0.00 0.00 48 1020.7
20260906154424 24 25 1.6 3.2 0.00 0.00 0.00 50 1020.7
20260906153924 24 113 3.2 4.8 0.00 0.00 0.00 48 1020.5
20260906153424 23 25 1.6 3.2 0.00 0.00 0.00 51 1020.5
20260906152924 23 19 3.2 6.4 0.00 0.00 0.00 52 1020.7
20260906152424 23 3 3.2 4.8 0.00 0.00 0.00 52 1020.7
20260906151924 23 38 1.6 3.2 0.00 0.00 0.00 53 1020.7
20260906151424 23 350 1.6 3.2 0.00 0.00 0.00 53 1020.7
20260906150924 23 38 3.2 4.8 0.00 0.00 0.00 52 1020.8
20260906150424 22 45 1.6 4.8 0.00 0.00 0.00 54 1020.8
20260906145924 22 351 1.6 3.2 0.00 0.00 0.00 54 1020.8
20260906145424 22 168 1.6 3.2 0.00 0.00 0.00 54 1020.8
20260906144924 21 13 1.6 3.2 0.00 0.00 0.00 56 1020.8
20260906144424 21 346 1.6 1.6 0.00 0.00 0.00 56 1020.8
20260906143924 21 8 1.6 3.2 0.00 0.00 0.00 57 1020.9
20260906143424 20 120 1.6 3.2 0.00 0.00 0.00 59 1020.9
20260906142924 20 182 3.2 3.2 0.00 0.00 0.00 61 1020.9
20260906142424 19 190 3.2 4.8 0.00 0.00 0.00 63 1020.9
20260906141924 18 198 4.8 4.8 0.00 0.00 0.00 63 1020.9
20260906141424 18 121 1.6 1.6 0.00 0.00 0.00 64 1020.9
20260906140925 18 238 1.6 1.6 0.00 0.00 0.00 66 1020.9
20260906140424 18 131 1.6 3.2 0.00 0.00 0.00 67 1020.9
20260906135924 17 112 1.6 3.2 0.00 0.00 0.00 69 1020.9
20260906135424 17 337 1.6 1.6 0.00 0.00 0.00 72 1020.9
20260906134924 16 267 1.6 1.6 0.00 0.00 0.00 74 1021.0
20260906134424 16 200 3.2 4.8 0.00 0.00 0.00 76 1021.0
20260906133924 15 261 0.0 1.6 0.00 0.00 0.00 81 1021.0
20260906133425 15 264 0.0 1.6 0.00 0.00 0.00 82 1021.0
20260906132924 15 218 1.6 1.6 0.00 0.00 0.00 82 1020.9
20260906132425 15 161 1.6 3.2 0.00 0.00 0.00 82 1020.9
20260906131924 15 201 1.6 3.2 0.00 0.00 0.00 83 1020.8
20260906131425 14 197 1.6 3.2 0.00 0.00 0.00 83 1020.7
20260906130924 14 205 3.2 3.2 0.00 0.00 0.00 85 1020.7
20260906130425 14 266 1.6 1.6 0.00 0.00 0.00 84 1020.5
20260906125924 14 216 1.6 3.2 0.00 0.00 0.00 84 1020.5
20260906125424 14 250 1.6 1.6 0.00 0.00 0.00 83 1020.4
20260906124924 15 220 1.6 3.2 0.00 0.00 0.00 83 1020.4
20260906124424 15 210 3.2 3.2 0.00 0.00 0.00 83 1020.3
20260906123926 15 210 3.2 3.2 0.00 0.00 0.00 83 1020.3
20260906123426 15 250 1.6 3.2 0.00 0.00 0.00 83 1020.3
20260906122924 15 217 1.6 1.6 0.00 0.00 0.00 82 1020.4
20260906122427 15 222 1.6 3.2 0.00 0.00 0.00 81 1020.4
20260906121925 15 206 1.6 3.2 0.00 0.00 0.00 80 1020.4
20260906121424 15 219 1.6 3.2 0.00 0.00 0.00 79 1020.4
20260906120924 16 300 1.6 1.6 0.00 0.00 0.00 78 1020.4
20260906120424 16 216 1.6 3.2 0.00 0.00 0.00 77 1020.4
20260906115925 16 190 3.2 4.8 0.00 0.00 0.00 76 1020.4
20260906115424 16 220 1.6 3.2 0.00 0.00 0.00 75 1020.4
20260906114924 16 180 3.2 3.2 0.00 0.00 0.00 74 1020.4
20260906114425 16 204 1.6 3.2 0.00 0.00 0.00 73 1020.4
20260906113924 16 191 1.6 3.2 0.00 0.00 0.00 72 1020.4
20260906113424 16 211 1.6 4.8 0.00 0.00 0.00 72 1020.4
20260906112924 16 289 1.6 1.6 0.00 0.00 0.00 71 1020.4
20260906112424 16 227 1.6 3.2 0.00 0.00 0.00 71 1020.4
20260906111923 16 179 1.6 4.8 0.00 0.00 0.00 70 1020.4
20260906111424 16 179 4.8 4.8 0.00 0.00 0.00 69 1020.3
20260906110924 16 189 3.2 3.2 0.00 0.00 0.00 69 1020.1
20260906110425 16 202 1.6 3.2 0.00 0.00 0.00 67 1020.1
20260906105924 16 321 1.6 3.2 0.00 0.00 0.00 68 1020.2
20260906105424 16 323 1.6 1.6 0.00 0.00 0.00 67 1020.0
20260906104924 16 206 3.2 4.8 0.00 0.00 0.00 69 1019.8
20260906104424 16 239 1.6 1.6 0.00 0.00 0.00 68 1020.0
20260906103924 16 211 3.2 6.4 0.00 0.00 0.00 69 1020.0
20260906103425 17 313 1.6 1.6 0.00 0.00 0.00 68 1020.0
20260906102925 17 13 1.6 1.6 0.00 0.00 0.00 65 1020.0
20260906102424 17 190 3.2 3.2 0.00 0.00 0.00 65 1019.8
20260906101924 17 218 1.6 3.2 0.00 0.00 0.00 64 1019.8
20260906101424 16 209 3.2 4.8 0.00 0.00 0.00 66 1019.7
20260906100924 16 195 1.6 4.8 0.00 0.00 0.00 67 1019.6
20260906100424 16 227 1.6 3.2 0.00 0.00 0.00 69 1019.6
20260906095925 16 140 1.6 1.6 0.00 0.00 0.00 71 1019.8
20260906095424 16 239 1.6 1.6 0.00 0.00 0.00 70 1019.8
20260906094925 17 324 1.6 3.2 0.00 0.00 0.00 68 1019.8
20260906094424 17 212 1.6 3.2 0.00 0.00 0.00 66 1019.8
20260906093924 16 206 3.2 4.8 0.00 0.00 0.00 67 1020.0
20260906093424 16 199 1.6 3.2 0.00 0.00 0.00 67 1020.0
20260906092924 16 211 1.6 3.2 0.00 0.00 0.00 69 1019.8
20260906092424 16 301 1.6 1.6 0.00 0.00 0.00 70 1019.8
20260906091924 16 332 1.6 1.6 0.00 0.00 0.00 69 1019.8
20260906091425 17 281 0.0 1.6 0.00 0.00 0.00 68 1019.7
20260906090924 17 222 1.6 3.2 0.00 0.00 0.00 68 1019.6
20260906090424 17 204 1.6 3.2 0.00 0.00 0.00 68 1019.6
20260906085924 17 340 1.6 1.6 0.00 0.00 0.00 67 1019.6
20260906085425 17 248 1.6 3.2 0.00 0.00 0.00 66 1019.5
20260906084925 17 207 1.6 3.2 0.00 0.00 0.00 66 1019.6
20260906084424 17 195 3.2 3.2 0.00 0.00 0.00 65 1019.5
20260906083924 17 203 1.6 1.6 0.00 0.00 0.00 65 1019.4
20260906083424 17 226 1.6 1.6 0.00 0.00 0.00 64 1019.4
20260906082924 18 219 1.6 3.2 0.00 0.00 0.00 65 1019.4
20260906082425 18 62 1.6 3.2 0.00 0.00 0.00 63 1019.5
20260906081924 18 139 1.6 1.6 0.00 0.00 0.00 62 1019.5
20260906081425 18 85 1.6 1.6 0.00 0.00 0.00 60 1019.5
20260906080926 18 73 1.6 1.6 0.00 0.00 0.00 59 1019.4
20260906080425 18 183 1.6 1.6 0.00 0.00 0.00 60 1019.4
20260906075924 18 29 3.2 3.2 0.00 0.00 0.00 59 1019.4
20260906075424 19 203 3.2 3.2 0.00 0.00 0.00 60 1019.4
20260906074924 19 55 0.0 1.6 0.00 0.00 0.00 58 1019.4
20260906074424 20 144 1.6 3.2 0.00 0.00 0.00 58 1019.4
20260906073924 20 63 1.6 1.6 0.00 0.00 0.00 56 1019.4
20260906073426 20 137 1.6 3.2 0.00 0.00 0.00 55 1019.3
20260906072924 20 174 1.6 1.6 0.00 0.00 0.00 56 1019.3
20260906072424 20 34 1.6 3.2 0.00 0.00 0.00 55 1019.3
20260906071925 20 291 1.6 1.6 0.00 0.00 0.00 55 1019.1
20260906071425 20 128 1.6 3.2 0.00 0.00 0.00 54 1019.1
20260906070924 20 167 3.2 3.2 0.00 0.00 0.00 53 1019.1
20260906070424 20 191 3.2 4.8 0.00 0.00 0.00 53 1019.1
20260906065925 20 214 3.2 4.8 0.00 0.00 0.00 54 1019.1
20260906065424 20 169 3.2 4.8 0.00 0.00 0.00 55 1019.1
20260906064924 20 255 1.6 1.6 0.00 0.00 0.00 54 1019.0
20260906064424 20 356 1.6 1.6 0.00 0.00 0.00 54 1019.0
20260906063924 21 319 1.6 1.6 0.00 0.00 0.00 55 1019.1
20260906063424 21 261 1.6 4.8 0.00 0.00 0.00 53 1019.3
20260906062924 21 201 1.6 3.2 0.00 0.00 0.00 53 1019.5
20260906062424 21 186 1.6 3.2 0.00 0.00 0.00 52 1019.5
20260906061924 21 169 3.2 3.2 0.00 0.00 0.00 51 1019.5
20260906061424 21 302 1.6 3.2 0.00 0.00 0.00 50 1019.6
20260906060924 22 207 3.2 8.0 0.00 0.00 0.00 49 1019.7
20260906060424 22 197 1.6 3.2 0.00 0.00 0.00 49 1019.7
20260906055924 22 202 3.2 6.4 0.00 0.00 0.00 48 1019.7
20260906055425 22 169 1.6 3.2 0.00 0.00 0.00 47 1019.7
20260906054927 22 61 1.6 3.2 0.00 0.00 0.00 46 1019.7
20260906054424 22 340 1.6 1.6 0.00 0.00 0.00 46 1019.8
20260906053943 22 238 1.6 3.2 0.00 0.00 0.00 45 1019.7
20260906053424 22 188 3.2 8.0 0.00 0.00 0.00 45 1019.8
20260906052924 23 318 3.2 4.8 0.00 0.00 0.00 44 1019.8
20260906052425 23 245 1.6 3.2 0.00 0.00 0.00 44 1019.7
20260906051924 23 195 4.8 8.0 0.00 0.00 0.00 43 1019.7
20260906051424 23 233 1.6 4.8 0.00 0.00 0.00 42 1019.7
20260906050924 23 216 3.2 4.8 0.00 0.00 0.00 41 1019.8
20260906050424 23 227 4.8 8.0 0.00 0.00 0.00 40 1019.8
20260906045926 23 203 9.7 16.1 0.00 0.00 0.00 41 1020.1
20260906045425 24 248 1.6 3.2 0.00 0.00 0.00 40 1020.0
20260906044924 24 330 1.6 3.2 0.00 0.00 0.00 38 1019.8
20260906044425 23 279 1.6 3.2 0.00 0.00 0.00 37 1020.0
20260906043925 23 278 1.6 3.2 0.00 0.00 0.00 37 1020.2
20260906043424 23 255 1.6 3.2 0.00 0.00 0.00 41 1020.2
20260906042924 22 261 1.6 1.6 0.00 0.00 0.00 43 1020.2
20260906042424 22 270 1.6 1.6 0.00 0.00 0.00 43 1020.1
20260906041924 22 226 1.6 1.6 0.00 0.00 0.00 43 1019.8
20260906041424 21 165 4.8 6.4 0.00 0.00 0.00 48 1020.0
20260906040925 20 133 3.2 4.8 0.00 0.00 0.00 56 1019.8
20260906040424 21 73 1.6 1.6 0.00 0.00 0.00 53 1019.4
20260906035924 21 232 1.6 1.6 0.00 0.00 0.00 52 1019.1
20260906035424 21 219 1.6 1.6 0.00 0.00 0.00 52 1019.0
20260906034925 21 230 1.6 1.6 0.00 0.00 0.00 51 1018.9
20260906034424 21 202 1.6 3.2 0.00 0.00 0.00 50 1018.9
20260906033924 21 223 1.6 1.6 0.00 0.00 0.00 49 1018.8
20260906033424 21 213 1.6 3.2 0.00 0.00 0.00 48 1018.7
20260906032924 21 195 1.6 3.2 0.00 0.00 0.00 48 1018.7
20260906032424 21 177 3.2 3.2 0.00 0.00 0.00 49 1018.7
20260906031924 21 234 1.6 1.6 0.00 0.00 0.00 48 1018.7
20260906031424 22 148 1.6 3.2 0.00 0.00 0.00 48 1018.7
20260906030925 22 360 1.6 1.6 0.00 0.00 0.00 45 1018.5
20260906030424 22 3 0.0 1.6 0.00 0.00 0.00 45 1018.4
20260906025924 22 273 0.0 1.6 0.00 0.00 0.00 44 1018.3
20260906025424 23 360 1.6 3.2 0.00 0.00 0.00 43 1018.1
20260906024924 23 216 1.6 1.6 0.00 0.00 0.00 42 1018.1
20260906024424 23 220 1.6 1.6 0.00 0.00 0.00 41 1018.1
20260906023924 23 280 0.0 1.6 0.00 0.00 0.00 42 1018.1
20260906023425 23 161 1.6 1.6 0.00 0.00 0.00 40 1018.1
20260906022924 23 180 0.0 1.6 0.00 0.00 0.00 42 1018.0
20260906022424 23 190 1.6 3.2 0.00 0.00 0.00 42 1018.0
20260906021924 24 189 3.2 3.2 0.00 0.00 0.00 39 1017.8
20260906021424 24 203 3.2 3.2 0.00 0.00 0.00 39 1017.7
20260906020924 25 203 1.6 3.2 0.00 0.00 0.00 40 1017.7
20260906020424 25 194 1.6 3.2 0.00 0.00 0.00 38 1017.6
20260906015924 26 179 1.6 1.6 0.00 0.00 0.00 36 1017.6
20260906015424 26 205 1.6 1.6 0.00 0.00 0.00 32 1017.5
20260906014925 27 295 1.6 1.6 0.00 0.00 0.00 31 1017.5
20260906014424 27 283 1.6 1.6 0.00 0.00 0.00 31 1017.5
20260906013924 27 327 1.6 1.6 0.00 0.00 0.00 31 1017.4
20260906013424 27 333 1.6 3.2 0.00 0.00 0.00 30 1017.3
20260906012924 27 353 3.2 4.8 0.00 0.00 0.00 30 1017.3
20260906012425 26 7 1.6 3.2 0.00 0.00 0.00 31 1017.3
20260906011924 26 315 1.6 1.6 0.00 0.00 0.00 33 1017.3
20260906011424 26 323 1.6 3.2 0.00 0.00 0.00 33 1017.1
20260906010925 26 283 1.6 1.6 0.00 0.00 0.00 36 1017.1
20260906010425 27 217 1.6 1.6 0.00 0.00 0.00 36 1017.1
20260906005924 27 208 1.6 1.6 0.00 0.00 0.00 36 1017.1
20260906005424 28 213 1.6 1.6 0.00 0.00 0.00 34 1017.1
20260906004924 28 204 1.6 3.2 0.00 0.00 0.00 33 1017.1
20260906004425 29 193 1.6 1.6 0.00 0.00 0.00 32 1017.1
20260906003925 30 219 1.6 1.6 0.00 0.00 0.00 29 1017.1
20260906003424 30 241 1.6 1.6 0.00 0.00 0.00 28 1017.1
20260906002924 31 291 1.6 1.6 0.00 0.00 0.00 27 1017.1
20260906002424 32 8 1.6 1.6 0.00 0.00 0.00 25 1017.1
20260906001924 33 244 1.6 1.6 0.00 0.00 0.00 24 1017.1
20260906001424 33 327 1.6 1.6 0.00 0.00 0.00 23 1017.0
20260906000924 33 347 1.6 1.6 0.00 0.00 0.00 22 1017.0
20260906000425 33 207 1.6 3.2 0.00 0.00 0.00 21 1017.0
20260905235925 33 21 1.6 3.2 0.00 0.00 0.00 21 1017.0
20260905235424 34 344 3.2 3.2 0.00 0.00 0.00 22 1016.9
20260905234924 34 4 1.6 3.2 0.00 0.00 0.00 21 1016.9
20260905234424 34 239 1.6 3.2 0.00 0.00 0.00 21 1016.9
20260905233924 34 284 1.6 3.2 0.00 0.00 0.00 21 1016.9
20260905233424 33 6 0.0 3.2 0.00 0.00 0.00 21 1016.9
20260905232924 33 189 3.2 3.2 0.00 0.00 0.00 21 1016.9
20260905232424 34 22 4.8 9.7 0.00 0.00 0.00 22 1016.9
20260905231924 35 260 1.6 4.8 0.00 0.00 0.00 20 1016.9
20260905231424 34 142 1.6 1.6 0.00 0.00 0.00 20 1016.9
20260905230924 34 320 3.2 6.4 0.00 0.00 0.00 21 1016.9
20260905230424 34 219 1.6 3.2 0.00 0.00 0.00 21 1016.9
20260905225925 34 179 3.2 4.8 0.00 0.00 0.00 21 1016.9
20260905225424 34 89 3.2 3.2 0.00 0.00 0.00 20 1016.9
20260905224925 34 195 1.6 3.2 0.00 0.00 0.00 20 1016.9
20260905224424 33 183 3.2 4.8 0.00 0.00 0.00 21 1016.9
20260905223924 33 254 3.2 4.8 0.00 0.00 0.00 21 1016.9
20260905223424 33 2 3.2 4.8 0.00 0.00 0.00 22 1016.9
20260905222924 34 349 3.2 6.4 0.00 0.00 0.00 22 1017.0